This demonstration page uses our WeatherBlox Daily Observations layout. Learn more.

Left ArrowRight Arrow

41.55636, -103.73856

Hourly Observations for October 6, 2015

Temp ( °F °C ) Dew Point ( °F °C ) Humidity (%) Winds ( mph kmh ) Pressure ( in mb ) Visibility ( mi km ) Precip ( " mm )
12:07 am 00:07 Cloudy 54 12.2 51 10.6 90 90 E 5 7 30.09 1019 8 12.87472 0 0
12:41 am 00:41 Cloudy 54 12.2 51 10.6 90 90 NE 5 7 30.06 1018 8 12.87472 0 0
12:53 am 00:53 Cloudy 55 12.8 51 10.6 87 87 ENE 3 6 30.1 1019 9 14.48406 0 0
1:53 am 01:53 Cloudy 55 12.8 51 10.6 87 87 Calm 30.09 1019 8 12.87472 0 0
2:53 am 02:53 Cloudy 54 12.2 51 10.6 90 90 NNE 3 6 30.09 1019 8 12.87472 0 0
3:53 am 03:53 Cloudy 53 11.7 51 10.6 93 93 undefined N/A 30.09 1019 7 11.26538 0 0
4:39 am 04:39 Cloudy 53 11.7 50 10 89 89 NNE 6 9 30.09 1019 8 12.87472 0 0
4:50 am 04:50 Cloudy 54 12 50 10 88 88 NNE 6 9 30.09 1019 9 14.48406 0 0
4:53 am 04:53 Cloudy 53 11.7 50 10 89 89 NNE 8 13 30.11 1020 9 14.48406 0 0
5:53 am 05:53 Cloudy 53 11.7 50 10 89 89 E 3 6 30.15 1021 9 14.48406 0 0
6:37 am 06:37 Cloudy 53 11.7 50 10 89 89 NNE 5 7 30.12 1020 10 16.0934 0 0
6:53 am 06:53 Cloudy 53 11.7 50 10 89 89 Calm 30.15 1021 10 16.0934 0 0
7:53 am 07:53 Cloudy 54 12.2 50 10 87 87 Calm 30.18 1022 10 16.0934 0 0.0254
8:53 am 08:53 Cloudy 55 12.8 52 11.1 90 90 Calm 30.19 1022 7 11.26538 0 0
9:53 am 09:53 Mostly Sunny 57 13.9 51 10.6 81 81 NE 5 7 30.19 1022 10 16.0934 0 0
10:24 am 10:24 Cloudy 57 14 52 11 82 82 Calm 30.12 1020 10 16.0934 0 0
10:49 am 10:49 Mostly Cloudy 57 14 52 11 82 82 Calm 30.12 1020 10 16.0934 0 0
10:53 am 10:53 Mostly Cloudy 57 13.9 51 10.6 81 81 Calm 30.19 1023 10 16.0934 0 0
11:11 am 11:11 Mostly Cloudy 57 13.9 51 10.6 81 81 Calm 30.12 1020 10 16.0934 0 0
11:53 am 11:53 Cloudy 56 13.3 52 11.1 87 87 NNW 5 7 30.2 1023 7 11.26538 0 0
12:53 pm 12:53 Cloudy with Light Rain 55 12.8 53 11.7 93 93 NW 5 7 30.19 1022 4 6.43736 0.03 0.762
1:06 pm 13:06 Cloudy with Rain 55 12.8 54 12.2 96 96 NW 5 7 30.15 1021 2.5 4.02335 0.02 0.508
1:16 pm 13:16 Cloudy with Rain 55 12.8 53 11.7 93 93 WNW 6 9 30.15 1021 3 4.82802 0.04 1.016
1:23 pm 13:23 Cloudy with Light Rain 55 12.8 54 12.2 96 96 undefined N/A 30.15 1021 2.5 4.02335 0.05 1.27
1:40 pm 13:40 Cloudy with Light Rain 55 13 54 12 94 94 undefined N/A 30.15 1021 2.5 4.02335 0 0
1:53 pm 13:53 Cloudy with Light Rain 56 13.3 54 12.2 93 93 undefined N/A 30.17 1022 3 4.82802 0.1 2.54
2:00 pm 14:00 Cloudy with Light Rain 55 13 54 12 94 94 undefined N/A 30.12 1020 4 6.43736 0 0
2:53 pm 14:53 Cloudy with Light Rain 56 13.3 54 12.2 93 93 undefined N/A 30.16 1021 3 4.82802 0.02 0.508
3:34 pm 15:34 Mostly Cloudy with Light Rain 61 16 54 12 77 77 undefined N/A 30.06 1018 8 12.87472 0 0
3:53 pm 15:53 Mostly Sunny 61 16.1 54 12.2 78 78 undefined N/A 30.13 1020 10 16.0934 0.03 0.762
4:53 pm 16:53 Mostly Sunny 62 16.7 53 11.7 73 73 NNW 7 11 30.12 1020 10 16.0934 0 0
5:53 pm 17:53 Mostly Cloudy 60 15.6 53 11.7 78 78 NW 3 6 30.11 1020 10 16.0934 0 0
6:53 pm 18:53 Partly Cloudy 57 13.9 53 11.7 87 87 W 5 7 30.13 1020 10 16.0934 0 0
7:53 pm 19:53 Cloudy 55 12.8 53 11.7 93 93 Calm 30.14 1021 9 14.48406 0 0
8:53 pm 20:53 Cloudy 54 12.2 52 11.1 93 93 Calm 30.15 1021 9 14.48406 0 0
9:53 pm 21:53 Mostly Cloudy 53 11.7 51 10.6 93 93 E 3 6 30.15 1021 7 11.26538 0 0
10:53 pm 22:53 Mostly Cloudy with Mist and Fog 54 12.2 52 11.1 93 93 SE 6 9 30.14 1021 6 9.65604 0 0
11:53 pm 23:53 Cloudy with Light Rain 55 12.8 53 11.7 93 93 ESE 6 9 30.13 1020 7 11.26538 0 0.0254

Powered by AerisWeather